Regional Weather Roundup
Issued by NWS Charleston, WV

Home | Current Version | Previous Version | Graphics & Text | Print | Product List | Glossary On
Versions: 1 2 3 4 5 6 7 8 9 10 11 12 13 14 15 16 17 18 19 20 21 22 23 24 25 26 27
000
ASUS41 KRLX 291810
RWRRLX
West Virginia Regional Weather Roundup
National Weather Service Charleston WV
200 PM EDT WED MAR 29 2017

Note: "fair" indicates few or no clouds below 12,000 feet with no
significant weather and/or obstructions to visibility.

WVZ003-291900-
Northern Panhandle of West Virginia

CITY           SKY/WX    TMP DP  RH WIND       PRES   REMARKS
WHEELING       SUNNY     56  35  45 N6        30.17F
$$

WVZ009-291900-
Northwest West Virginia

CITY           SKY/WX    TMP DP  RH WIND       PRES   REMARKS
PARKERSBURG    PTSUNNY   55  41  59 VRB3      30.20F
$$

WVZ006-291900-
Western West Virginia

CITY           SKY/WX    TMP DP  RH WIND       PRES   REMARKS
HUNTINGTON     CLOUDY    54  45  71 VRB5      30.15F
$$

WVZ015-291900-
West Central West Virginia

CITY           SKY/WX    TMP DP  RH WIND       PRES   REMARKS
CHARLESTON     CLOUDY    57  45  64 NE6       30.14F
$$

WVZ022-031-291900-
North Central West Virginia

CITY           SKY/WX    TMP DP  RH WIND       PRES   REMARKS
CLARKSBURG     SUNNY     54  40  59 VRB5      30.17F
MORGANTOWN     SUNNY     56  39  53 VRB3      30.17F
$$

WVZ025-035-042-045-291900-
Southern West Virginia

CITY           SKY/WX    TMP DP  RH WIND       PRES   REMARKS
BECKLEY        SUNNY     59  44  57 MISG      30.12F
LOGAN            N/A     61  48  63 CALM      30.11F
BLUEFIELD      SUNNY     61  43  51 VRB5      30.11F
LEWISBURG      SUNNY     61  45  55 CALM      30.10F
$$

WVZ047-291900-
Northern Mountains of West Virginia

CITY           SKY/WX    TMP DP  RH WIND       PRES   REMARKS
ELKINS         CLOUDY    51  40  65 CALM      30.16F
$$

WVZ052-291900-
Eastern Panhandle of West Virginia

CITY           SKY/WX    TMP DP  RH WIND       PRES   REMARKS
MARTINSBURG    SUNNY     61  37  41 N10       30.13F
PETERSBURG     SUNNY     62  44  51 CALM      30.13F
$$




USA.gov is the U.S. government's official web portal to all federal, state and local government web resources and services.